STARLINK-1017, 44723

Orbit data source: Space-Track

STARLINK-1017, 44723 is a payload satellite owned by SpaceX/Seattle (US) in LEO that was launched on Mon, 11 Nov 2019 UTC via an FALCON 9 launch vehicle from the Air Force Eastern Test Range (AFETR). Payload-class satellites include a variety of spacecraft equipped with specific instruments for various scientific and technological missions. These include communications satellites like Starlink; space stations such as the ISS; scientific satellites like the Hubble; Earth observation satellites from companies like Planet Labs, Umbra, and HawkEye 360; GPS; miniature CubeSats for education and research; and military/defense satellites.

Loading next visibility...
Identifier
44723, 2019-074L
Orbit
LEO
Country
Flag of USUS
Related business
Manufacturer
SpaceX/Seattle
Mission
Partially operational Commercial Communications
Bus & Motor
STARLINK, Unknown motor
Mass
260 kg wet, ~248 kg dry
Launch date (UTC)
2019-11-11 (6 years ago)
Launch vehicle
FALCON 9
Launch site
Air Force Eastern Test Range (AFETR)
Object type
Payload
Rocket body
Debris
Shape & HBR
Box + 1 Pan, 10.1 m
Radar Cross Section
13.562 m², Large (>1 m²)

Expand to show TLE details & history
Last TLE update: 7 hours ago

TLE from 7 hours ago
0 STARLINK-1017
1 44723U 19074L   26119.22199465  .00034915  00000-0  12519-2 0  9990
2 44723  53.0509 297.5035 0002492 222.7241 137.3564 15.28416085356689
Epoch: 2026-04-29T05:19Z
TLE epoch observation values (Epoch: 2026-04-29T05:19:40.337Z)
Latitude
-0.00004°
Longitude
0.39934°
Altitude
482.691 km
Speed
7.625 km/s
True Right ascension
19h 50m 00s
True Declination
0° 00' 00"
Sunlit
Object was in daylight at epoch
Visualization orbit readout
Latitude
Unknown
Longitude
Unknown
Altitude
Unknown
Speed
Unknown
Apparent Right ascension
Unknown
Apparent Declination
Unknown
Sunlit
N/A
Visualization observer readout
Local Sidereal Time
19:24:29
Azimuth
Unknown
Elevation
Unknown
Doppler factor
Unknown
Orbital elements
Apogee altitude
482.53 km
Perigee altitude
479.111 km
Semi-major axis
6,858.958 km
Eccentricity
0.00025
Inclination
53.0509°
RAAN
297.5035°
Arg. of periapsis
222.7241°
True anomaly
137.37574°
Mean anomaly
137.3564°
Eccentric anomaly
137.36607°
Mean motion
3.82081 °/min
Orbital period
94.22 mins
BSTAR
0.0012519
Loading maneuver chart data...
Computing Atmospheric mass density...
Loading historical data...
Loading historical data...
Loading historical data...
Loading historical data...
Loading historical data...
Loading historical data...
Loading historical data...

Documentation

Showing up to 5 results
|